Regional Weather Roundup
Issued by NWS Little Rock, AR

Home | Current Version | Previous Version | Text Only | Print | Product List | Glossary Off
Versions: 1 2 3 4 5 6 7 8 9 10 11 12 13 14 15 16 17 18 19 20 21 22 23 24 25 26 27 28 29 30 31 32 33 34 35 36 37 38 39 40 41 42 43 44 45 46 47 48 49 50

000
ASUS44 KLZK 192205
RWRLZK

WEATHER ROUNDUP FOR ARKANSAS
NATIONAL WEATHER SERVICE LITTLE ROCK AR
400 PM CST FRI DEC 19 2014

NOTE: "FAIR" INDICATES FEW OR NO CLOUDS BELOW 12,000 FEET WITH NO
SIGNIFICANT WEATHER AND/OR OBSTRUCTIONS TO VISIBILITY.

ARZ001-003-010-029-192300-
NORTHWEST ARKANSAS

CITY           SKY/WX    TMP DP  RH WIND       PRES   REMARKS
FAYETTEVILLE   LGT RAIN  41  40  96 CALM      30.17S FOG
FORT SMITH     CLOUDY    44  39  82 E7        30.20R HAZE
HARRISON       CLOUDY    37  37 100 E5        30.18R FOG
BENTONVILLE    CLOUDY    43  37  81 CALM      30.18S
ROGERS         LGT RAIN  40  39  97 E3        30.18S FOG
SILOAM SPGS    CLOUDY    41  36  81 CALM      30.19R
HIGHFILL       CLOUDY    42  40  92 CALM      30.17R FOG
SPRINGDALE     CLOUDY    41  39  93 NE3       30.19R FOG
$$

ARZ004-005-016-192300-
NORTH CENTRAL ARKANSAS

CITY           SKY/WX    TMP DP  RH WIND       PRES   REMARKS
BATESVILLE     CLOUDY    39  34  81 CALM      30.22R
FLIPPIN        CLOUDY    39  32  75 E5        30.20S
MTN HOME       CLOUDY    37  34  89 E3        30.20R
$$

ARZ040-041-192300-
WEST CENTRAL ARKANSAS

CITY           SKY/WX    TMP DP  RH WIND       PRES   REMARKS
MENA           CLOUDY    45  43  93 E3        30.17R
MOUNT IDA      CLOUDY    43  40  89 CALM      30.16R
$$

ARZ009-017-025-026-028-192300-
NORTHEAST ARKANSAS

CITY           SKY/WX    TMP DP  RH WIND       PRES   REMARKS
CORNING        FAIR      39  32  75 NE10      30.25F
JONESBORO      CLOUDY    40  33  76 NE12      30.23F
NEWPORT        CLOUDY    41  36  82 NE10      30.22F
WALNUT RIDGE   CLOUDY    39  30  70 NE12      30.23F
BLYTHEVILLE    CLOUDY    41  31  67 NE9       30.26R
$$

ARZ022-023-033-042-044-192300-
CENTRAL ARKANSAS

CITY           SKY/WX    TMP DP  RH WIND       PRES   REMARKS
LITTLE ROCK    CLOUDY    44  37  76 NE7       30.21S
N LITTLE ROCK  CLOUDY    41  40  95 NE7       30.21S
JACKSONVILLE   CLOUDY    42  37  83 NE5       30.21R
HOT SPRINGS    CLOUDY    42  40  92 NE5       30.19S FOG
RUSSELLVILLE   CLOUDY    44  37  76 CALM      30.20R
CLINTON        CLOUDY    41  37  87 NE3       30.23R HAZE
$$

ARZ036-192300-
EAST ARKANSAS

CITY           SKY/WX    TMP DP  RH WIND       PRES   REMARKS
WEST MEMPHIS   CLOUDY    43  36  76 NE9       30.20R
$$

ARZ050-053-066-070-073-192300-
SOUTHWEST ARKANSAS

CITY           SKY/WX    TMP DP  RH WIND       PRES   REMARKS
ARKADELPHIA    CLOUDY    45  44  96 NE7       30.20R
CAMDEN         CLOUDY    48  41  76 MISG      30.17S
TEXARKANA      CLOUDY    47  43  86 NE7       30.16R
EL DORADO      CLOUDY    46  44  93 NE8       30.15F
DE QUEEN       CLOUDY    45  43  93 NE5       30.16S FOG
$$

ARZ056-057-069-192300-
SOUTHEAST ARKANSAS

CITY           SKY/WX    TMP DP  RH WIND       PRES   REMARKS
PINE BLUFF     CLOUDY    45  38  76 NE10      30.18S
STUTTGART      CLOUDY    43  36  75 NE8       30.19F
MONTICELLO     CLOUDY    46  42  86 VRB6      30.17R

$$




USA.gov is the U.S. government's official web portal to all federal, state and local government web resources and services.